Volver al catálogo

COSMOS 252 DEB *

ActivoLEO
NORAD 3686·DEBRIS·🇷🇺 Russia

Lanzado Nov 1, 1968 desde Baikonur Cosmodrome

Loading…

Próximos Pases (próximas 24 horas)

TLE

ActualizadoSource: Space-Track

Época: Sep 14, 2026, 12:38 UTC

1 03686U 68097AD  26257.52643919  .00000606  00000-0  64209-3 0  9990
2 03686  62.2606 232.7978 0624682 191.3443 167.2912 13.18198727708547

Sigue COSMOS 252 DEB * en tiempo real con AllMySat

Download on the App Store